Time,TemperatureF,DewpointF,PressureIn,WindDirection,WindDirectionDegrees,WindSpeedMPH,WindSpeedGustMPH,Humidity,HourlyPrecipIn,Conditions,Clouds,dailyrainin,SoftwareType,DateUTC
2013-08-30 00:01:00,71.5,68.1,30.02,SW,225,0.0,0.0,89,0.00,RMK 76.3/50.0,,0.00,WUHU21623XXSP,2013-08-30 04:01:00,
2013-08-30 00:06:00,71.3,68.2,30.02,SW,225,0.0,0.0,90,0.00,RMK 76.5/50.0,,0.00,WUHU21623XXSP,2013-08-30 04:06:00,
2013-08-30 00:11:00,71.3,68.2,30.02,SW,225,0.0,0.0,90,0.00,RMK 76.5/50.0,,0.00,WUHU21623XXSP,2013-08-30 04:11:00,
2013-08-30 00:16:00,71.3,68.2,30.02,SW,225,0.0,0.0,90,0.00,RMK 76.5/50.0,,0.00,WUHU21623XXSP,2013-08-30 04:16:00,
2013-08-30 00:21:00,71.1,68.0,30.02,SW,225,0.0,0.0,90,0.00,RMK 76.5/50.0,,0.00,WUHU21623XXSP,2013-08-30 04:21:00,
2013-08-30 00:26:00,70.9,67.8,30.02,SW,225,0.0,0.0,90,0.00,RMK 76.5/50.0,,0.00,WUHU21623XXSP,2013-08-30 04:26:00,
2013-08-30 00:31:00,70.9,67.8,30.02,SW,225,0.0,0.0,90,0.00,RMK 76.5/50.0,,0.00,WUHU21623XXSP,2013-08-30 04:31:00,
2013-08-30 00:36:00,70.9,67.8,30.02,SW,225,0.0,0.0,90,0.00,RMK 76.5/50.0,,0.00,WUHU21623XXSP,2013-08-30 04:36:00,
2013-08-30 00:41:00,70.7,67.6,30.02,SW,225,0.0,0.0,90,0.00,RMK 76.5/50.0,,0.00,WUHU21623XXSP,2013-08-30 04:41:00,
2013-08-30 00:46:00,70.7,67.6,30.02,SW,225,0.0,0.0,90,0.00,RMK 76.5/50.0,,0.00,WUHU21623XXSP,2013-08-30 04:46:00,
2013-08-30 00:51:00,70.7,67.6,30.02,SW,225,0.0,0.0,90,0.00,RMK 76.5/50.0,,0.00,WUHU21623XXSP,2013-08-30 04:51:00,
2013-08-30 00:56:00,70.6,67.5,30.02,SW,225,0.0,0.0,90,0.00,RMK 76.5/50.0,,0.00,WUHU21623XXSP,2013-08-30 04:56:00,
2013-08-30 01:01:00,70.6,67.5,30.02,SW,225,0.0,0.0,90,0.00,RMK 76.5/50.0,,0.00,WUHU21623XXSP,2013-08-30 05:01:00,
2013-08-30 01:09:00,70.6,67.5,30.02,SW,225,0.0,0.0,90,0.00,RMK 76.6/50.0,,0.00,WUHU21623XXSP,2013-08-30 05:09:00,
2013-08-30 01:14:00,70.4,67.6,30.02,SW,225,0.0,0.0,91,0.00,RMK 76.6/50.0,,0.00,WUHU21623XXSP,2013-08-30 05:14:00,
2013-08-30 01:19:00,70.2,67.4,30.02,SW,225,0.0,0.0,91,0.00,RMK 76.6/50.0,,0.00,WUHU21623XXSP,2013-08-30 05:19:00,
2013-08-30 01:24:00,70.2,67.4,30.02,SW,225,0.0,0.0,91,0.00,RMK 76.6/50.0,,0.00,WUHU21623XXSP,2013-08-30 05:24:00,
2013-08-30 01:29:00,70.0,67.2,30.03,SW,225,0.0,0.0,91,0.00,RMK 76.6/50.0,,0.00,WUHU21623XXSP,2013-08-30 05:29:00,
2013-08-30 01:34:00,70.0,67.2,30.02,SW,225,0.0,0.0,91,0.00,RMK 76.6/50.0,,0.00,WUHU21623XXSP,2013-08-30 05:34:00,
2013-08-30 01:39:00,70.0,67.2,30.02,SW,225,0.0,0.0,91,0.00,RMK 76.6/50.0,,0.00,WUHU21623XXSP,2013-08-30 05:39:00,
2013-08-30 01:44:00,69.8,67.0,30.02,SW,225,0.0,0.0,91,0.00,RMK 76.6/50.0,,0.00,WUHU21623XXSP,2013-08-30 05:44:00,
2013-08-30 01:49:00,69.8,67.0,30.02,SW,225,0.0,0.0,91,0.00,RMK 76.6/50.0,,0.00,WUHU21623XXSP,2013-08-30 05:49:00,
2013-08-30 01:54:00,69.8,67.0,30.02,SW,225,0.0,0.0,91,0.00,RMK 76.6/50.0,,0.00,WUHU21623XXSP,2013-08-30 05:54:00,
2013-08-30 02:04:00,69.7,66.9,30.02,SW,225,0.0,0.0,91,0.00,RMK 76.6/50.0,,0.00,WUHU21623XXSP,2013-08-30 06:04:00,
2013-08-30 02:09:00,69.5,66.7,30.02,SW,225,0.0,0.0,91,0.00,RMK 76.6/50.0,,0.00,WUHU21623XXSP,2013-08-30 06:09:00,
2013-08-30 02:14:00,69.3,66.5,30.02,SW,225,0.0,0.0,91,0.00,RMK 76.6/50.0,,0.00,WUHU21623XXSP,2013-08-30 06:14:00,
2013-08-30 02:19:00,69.3,66.8,30.01,SW,225,0.0,0.0,92,0.00,RMK 76.6/50.0,,0.00,WUHU21623XXSP,2013-08-30 06:19:00,
2013-08-30 02:24:00,69.1,66.6,30.01,SW,225,0.0,0.0,92,0.00,RMK 76.6/50.0,,0.00,WUHU21623XXSP,2013-08-30 06:24:00,
2013-08-30 02:29:00,69.1,66.6,30.01,SW,225,0.0,0.0,92,0.00,RMK 76.6/50.0,,0.00,WUHU21623XXSP,2013-08-30 06:29:00,
2013-08-30 02:34:00,69.1,66.6,30.01,SW,225,0.0,0.0,92,0.00,RMK 76.6/50.0,,0.00,WUHU21623XXSP,2013-08-30 06:34:00,
2013-08-30 02:39:00,69.1,66.6,30.01,SW,225,0.0,0.0,92,0.00,RMK 76.6/50.0,,0.00,WUHU21623XXSP,2013-08-30 06:39:00,
2013-08-30 02:44:00,69.1,66.6,30.01,SW,225,0.0,0.0,92,0.00,RMK 76.6/50.0,,0.00,WUHU21623XXSP,2013-08-30 06:44:00,
2013-08-30 02:49:00,68.9,66.5,30.02,SW,225,0.0,0.0,92,0.00,RMK 76.6/50.0,,0.00,WUHU21623XXSP,2013-08-30 06:49:00,
2013-08-30 02:54:00,68.9,66.5,30.01,SW,225,0.0,0.0,92,0.00,RMK 76.6/50.0,,0.00,WUHU21623XXSP,2013-08-30 06:54:00,
2013-08-30 02:59:00,68.8,66.4,30.01,SW,225,0.0,0.0,92,0.00,RMK 76.6/51.0,,0.00,WUHU21623XXSP,2013-08-30 06:59:00,
2013-08-30 03:04:00,68.8,66.4,30.01,SW,225,0.0,0.0,92,0.00,RMK 76.6/51.0,,0.00,WUHU21623XXSP,2013-08-30 07:04:00,
2013-08-30 03:09:00,68.6,66.2,30.01,SW,225,0.0,0.0,92,0.00,RMK 76.6/51.0,,0.00,WUHU21623XXSP,2013-08-30 07:09:00,
2013-08-30 03:14:00,68.6,66.2,30.01,SW,225,0.0,0.0,92,0.00,RMK 76.6/51.0,,0.00,WUHU21623XXSP,2013-08-30 07:14:00,
2013-08-30 03:19:00,68.6,66.2,30.01,SW,225,0.0,0.0,92,0.00,RMK 76.6/51.0,,0.00,WUHU21623XXSP,2013-08-30 07:19:00,
2013-08-30 03:24:00,68.4,66.0,30.01,SW,225,0.0,0.0,92,0.00,RMK 76.6/51.0,,0.00,WUHU21623XXSP,2013-08-30 07:24:00,
2013-08-30 03:29:00,68.4,66.0,30.01,SW,225,0.0,0.0,92,0.00,RMK 76.6/51.0,,0.00,WUHU21623XXSP,2013-08-30 07:29:00,
2013-08-30 03:34:00,68.4,66.0,30.00,SW,225,0.0,0.0,92,0.00,RMK 76.6/51.0,,0.00,WUHU21623XXSP,2013-08-30 07:34:00,
2013-08-30 03:39:00,68.4,66.0,30.00,SW,225,0.0,0.0,92,0.00,RMK 76.6/51.0,,0.00,WUHU21623XXSP,2013-08-30 07:39:00,
2013-08-30 03:44:00,68.2,65.8,30.00,SW,225,0.0,0.0,92,0.00,RMK 76.6/51.0,,0.00,WUHU21623XXSP,2013-08-30 07:44:00,
2013-08-30 03:49:00,68.2,65.8,30.00,SW,225,0.0,0.0,92,0.00,RMK 76.6/51.0,,0.00,WUHU21623XXSP,2013-08-30 07:49:00,
2013-08-30 03:54:00,68.2,65.8,30.00,SW,225,0.0,0.0,92,0.00,RMK 76.6/51.0,,0.00,WUHU21623XXSP,2013-08-30 07:54:00,
2013-08-30 03:59:00,68.0,65.6,30.00,SW,225,0.0,0.0,92,0.00,RMK 76.6/51.0,,0.00,WUHU21623XXSP,2013-08-30 07:59:00,
2013-08-30 04:04:00,68.0,65.6,30.00,SW,225,0.0,0.0,92,0.00,RMK 76.6/51.0,,0.00,WUHU21623XXSP,2013-08-30 08:04:00,
2013-08-30 04:09:00,67.9,65.5,30.00,SW,225,0.0,0.0,92,0.00,RMK 76.6/52.0,,0.00,WUHU21623XXSP,2013-08-30 08:09:00,
2013-08-30 04:14:00,67.9,65.5,30.00,SW,225,0.0,0.0,92,0.00,RMK 76.6/52.0,,0.00,WUHU21623XXSP,2013-08-30 08:14:00,
2013-08-30 04:19:00,67.7,65.3,30.00,SW,225,0.0,0.0,92,0.00,RMK 76.8/52.0,,0.00,WUHU21623XXSP,2013-08-30 08:19:00,
2013-08-30 04:24:00,67.7,65.3,29.99,SW,225,0.0,0.0,92,0.00,RMK 76.8/52.0,,0.00,WUHU21623XXSP,2013-08-30 08:24:00,
2013-08-30 04:29:00,67.7,65.3,29.99,SW,225,0.0,0.0,92,0.00,RMK 77.0/53.0,,0.00,WUHU21623XXSP,2013-08-30 08:29:00,
2013-08-30 04:34:00,67.7,65.3,29.99,SW,225,0.0,0.0,92,0.00,RMK 77.0/52.0,,0.00,WUHU21623XXSP,2013-08-30 08:34:00,
2013-08-30 04:39:00,67.3,64.9,29.99,SW,225,0.0,0.0,92,0.00,RMK 77.0/52.0,,0.00,WUHU21623XXSP,2013-08-30 08:39:00,
2013-08-30 04:44:00,67.3,64.9,29.99,SW,225,0.0,0.0,92,0.00,RMK 77.2/52.0,,0.00,WUHU21623XXSP,2013-08-30 08:44:00,
2013-08-30 04:49:00,67.3,64.9,29.99,SW,225,0.0,0.0,92,0.00,RMK 77.2/52.0,,0.00,WUHU21623XXSP,2013-08-30 08:49:00,
2013-08-30 04:54:00,67.3,64.9,29.98,SW,225,0.0,0.0,92,0.00,RMK 77.4/52.0,,0.00,WUHU21623XXSP,2013-08-30 08:54:00,
2013-08-30 04:59:00,67.3,64.9,29.98,SW,225,0.0,0.0,92,0.00,RMK 77.4/52.0,,0.00,WUHU21623XXSP,2013-08-30 08:59:00,
2013-08-30 05:04:00,67.3,64.9,29.98,SW,225,0.0,0.0,92,0.00,RMK 77.4/52.0,,0.00,WUHU21623XXSP,2013-08-30 09:04:00,
2013-08-30 05:09:00,67.1,64.7,29.98,SW,225,0.0,0.0,92,0.00,RMK 77.5/52.0,,0.00,WUHU21623XXSP,2013-08-30 09:09:00,
2013-08-30 05:14:00,67.1,64.7,29.98,SW,225,0.0,0.0,92,0.00,RMK 77.5/53.0,,0.00,WUHU21623XXSP,2013-08-30 09:14:00,
2013-08-30 05:19:00,67.1,64.7,29.98,SW,225,0.0,0.0,92,0.00,RMK 77.5/52.0,,0.00,WUHU21623XXSP,2013-08-30 09:19:00,
2013-08-30 05:24:00,66.8,64.4,29.98,SW,225,0.0,0.0,92,0.00,RMK 77.7/52.0,,0.00,WUHU21623XXSP,2013-08-30 09:24:00,
2013-08-30 05:29:00,66.8,64.4,29.98,SW,225,0.0,0.0,92,0.00,RMK 77.7/52.0,,0.00,WUHU21623XXSP,2013-08-30 09:29:00,
2013-08-30 05:34:00,66.8,64.4,29.98,SW,225,0.0,0.0,92,0.00,RMK 77.7/52.0,,0.00,WUHU21623XXSP,2013-08-30 09:34:00,
2013-08-30 05:39:00,66.6,64.2,29.98,SW,225,0.0,0.0,92,0.00,RMK 77.7/53.0,,0.00,WUHU21623XXSP,2013-08-30 09:39:00,
2013-08-30 05:44:00,66.8,64.4,29.98,SW,225,0.0,0.0,92,0.00,RMK 77.9/52.0,,0.00,WUHU21623XXSP,2013-08-30 09:44:00,
2013-08-30 05:49:00,66.8,64.7,29.98,SW,225,0.0,0.0,93,0.00,RMK 77.9/52.0,,0.00,WUHU21623XXSP,2013-08-30 09:49:00,
2013-08-30 05:54:00,66.8,64.7,29.97,SW,225,0.0,0.0,93,0.00,RMK 77.9/52.0,,0.00,WUHU21623XXSP,2013-08-30 09:54:00,
2013-08-30 05:59:00,66.8,64.7,29.97,SW,225,0.0,0.0,93,0.00,RMK 78.1/52.0,,0.00,WUHU21623XXSP,2013-08-30 09:59:00,
2013-08-30 06:04:00,66.8,64.7,29.97,SW,225,0.0,0.0,93,0.00,RMK 78.1/52.0,,0.00,WUHU21623XXSP,2013-08-30 10:04:00,
2013-08-30 06:09:00,66.8,64.7,29.97,SW,225,0.0,0.0,93,0.00,RMK 78.1/53.0,,0.00,WUHU21623XXSP,2013-08-30 10:09:00,
2013-08-30 06:14:00,66.6,64.5,29.97,SW,225,0.0,0.0,93,0.00,RMK 78.1/52.0,,0.00,WUHU21623XXSP,2013-08-30 10:14:00,
2013-08-30 06:19:00,66.6,64.5,29.97,SW,225,0.0,0.0,93,0.00,RMK 78.1/53.0,,0.00,WUHU21623XXSP,2013-08-30 10:19:00,
2013-08-30 06:24:00,66.6,64.5,29.97,SW,225,0.0,0.0,93,0.00,RMK 78.1/54.0,,0.00,WUHU21623XXSP,2013-08-30 10:24:00,
2013-08-30 06:29:00,66.6,64.5,29.97,SW,225,0.0,0.0,93,0.00,RMK 78.1/54.0,,0.00,WUHU21623XXSP,2013-08-30 10:29:00,
2013-08-30 06:34:00,66.6,64.5,29.97,SW,225,0.0,0.0,93,0.00,RMK 77.9/54.0,,0.00,WUHU21623XXSP,2013-08-30 10:34:00,
2013-08-30 06:39:00,66.6,64.5,29.97,SW,225,0.0,0.0,93,0.00,RMK 77.7/55.0,,0.00,WUHU21623XXSP,2013-08-30 10:39:00,
2013-08-30 06:44:00,66.6,64.5,29.97,SW,225,0.0,0.0,93,0.00,RMK 77.7/56.0,,0.00,WUHU21623XXSP,2013-08-30 10:44:00,
2013-08-30 06:49:00,66.6,64.5,29.97,SW,225,0.0,0.0,93,0.00,RMK 77.7/56.0,,0.00,WUHU21623XXSP,2013-08-30 10:49:00,
2013-08-30 06:54:00,66.6,64.5,29.97,SW,225,0.0,0.0,93,0.00,RMK 77.7/56.0,,0.00,WUHU21623XXSP,2013-08-30 10:54:00,
2013-08-30 06:59:00,66.8,64.7,29.97,SW,225,0.0,0.0,93,0.00,RMK 77.5/57.0,,0.00,WUHU21623XXSP,2013-08-30 10:59:00,
2013-08-30 07:04:00,66.8,64.7,29.97,SW,225,0.0,0.0,93,0.00,RMK 77.5/56.0,,0.00,WUHU21623XXSP,2013-08-30 11:04:00,
2013-08-30 07:09:00,66.8,64.7,29.97,SW,225,0.0,0.0,93,0.00,RMK 77.5/56.0,,0.00,WUHU21623XXSP,2013-08-30 11:09:00,
2013-08-30 07:14:00,66.8,64.7,29.97,SW,225,0.0,0.0,93,0.00,RMK 77.4/57.0,,0.00,WUHU21623XXSP,2013-08-30 11:14:00,
2013-08-30 07:19:00,66.8,64.7,29.97,SW,225,0.0,0.0,93,0.00,RMK 77.4/55.0,,0.00,WUHU21623XXSP,2013-08-30 11:19:00,
2013-08-30 07:24:00,66.8,64.7,29.97,SW,225,0.0,0.0,93,0.00,RMK 77.4/53.0,,0.00,WUHU21623XXSP,2013-08-30 11:24:00,
2013-08-30 07:29:00,66.8,64.7,29.97,SSW,202,0.0,0.0,93,0.00,RMK 77.4/52.0,,0.00,WUHU21623XXSP,2013-08-30 11:29:00,
2013-08-30 07:34:00,67.0,64.9,29.97,SSW,202,0.0,0.0,93,0.00,RMK 77.2/52.0,,0.00,WUHU21623XXSP,2013-08-30 11:34:00,
2013-08-30 07:39:00,67.0,64.9,29.97,SSW,202,0.0,0.0,93,0.00,RMK 77.2/51.0,,0.00,WUHU21623XXSP,2013-08-30 11:39:00,
2013-08-30 07:44:00,67.1,65.0,29.98,SSW,202,0.0,0.0,93,0.00,RMK 77.0/51.0,,0.00,WUHU21623XXSP,2013-08-30 11:44:00,
2013-08-30 07:49:00,67.1,65.0,29.97,SSW,202,0.0,0.0,93,0.00,RMK 77.0/51.0,,0.00,WUHU21623XXSP,2013-08-30 11:49:00,
2013-08-30 07:54:00,67.1,65.0,29.97,SSW,202,0.0,0.0,93,0.00,RMK 76.8/50.0,,0.00,WUHU21623XXSP,2013-08-30 11:54:00,
2013-08-30 07:59:00,67.1,65.0,29.98,SSW,202,0.0,0.0,93,0.00,RMK 76.8/50.0,,0.00,WUHU21623XXSP,2013-08-30 11:59:00,
2013-08-30 08:04:00,67.3,65.2,29.98,SSW,202,0.0,0.0,93,0.00,RMK 76.6/50.0,,0.00,WUHU21623XXSP,2013-08-30 12:04:00,
2013-08-30 08:09:00,67.3,65.2,29.98,SSW,202,0.0,0.0,93,0.00,RMK 76.6/50.0,,0.00,WUHU21623XXSP,2013-08-30 12:09:00,
2013-08-30 08:14:00,67.3,65.2,29.98,SSW,202,0.0,0.0,93,0.00,RMK 76.6/50.0,,0.00,WUHU21623XXSP,2013-08-30 12:14:00,
2013-08-30 08:19:00,67.3,65.2,29.98,SSW,202,0.0,0.0,93,0.00,RMK 76.6/50.0,,0.00,WUHU21623XXSP,2013-08-30 12:19:00,
2013-08-30 08:24:00,67.7,65.6,29.98,SSW,202,0.0,0.0,93,0.00,RMK 76.5/49.0,,0.00,WUHU21623XXSP,2013-08-30 12:24:00,
2013-08-30 08:29:00,67.9,65.8,29.98,SSW,202,0.0,0.0,93,0.00,RMK 76.5/50.0,,0.00,WUHU21623XXSP,2013-08-30 12:29:00,
2013-08-30 08:34:00,68.0,65.9,29.98,SSW,202,0.0,0.0,93,0.00,RMK 76.5/49.0,,0.00,WUHU21623XXSP,2013-08-30 12:34:00,
2013-08-30 08:39:00,68.2,66.1,29.98,SW,225,0.0,0.0,93,0.00,RMK 76.5/49.0,,0.00,WUHU21623XXSP,2013-08-30 12:39:00,
2013-08-30 08:44:00,68.4,66.3,29.97,SSW,202,0.0,0.0,93,0.00,RMK 76.3/49.0,,0.00,WUHU21623XXSP,2013-08-30 12:44:00,
2013-08-30 08:49:00,68.8,66.7,29.98,SW,225,0.0,0.0,93,0.00,RMK 76.3/49.0,,0.00,WUHU21623XXSP,2013-08-30 12:49:00,
2013-08-30 08:54:00,69.5,67.4,29.97,SSW,202,0.0,0.0,93,0.00,RMK 76.3/49.0,,0.00,WUHU21623XXSP,2013-08-30 12:54:00,
2013-08-30 08:59:00,70.2,67.7,29.97,WSW,247,0.0,0.0,92,0.00,RMK 76.3/49.0,,0.00,WUHU21623XXSP,2013-08-30 12:59:00,
2013-08-30 09:04:00,70.7,67.9,29.97,SSW,202,0.0,0.0,91,0.00,RMK 76.3/49.0,,0.00,WUHU21623XXSP,2013-08-30 13:04:00,
2013-08-30 09:09:00,71.8,68.4,29.96,SSW,202,0.0,0.0,89,0.00,RMK 76.3/49.0,,0.00,WUHU21623XXSP,2013-08-30 13:09:00,
2013-08-30 09:14:00,72.5,68.7,29.96,WSW,247,0.0,0.0,88,0.00,RMK 76.3/49.0,,0.00,WUHU21623XXSP,2013-08-30 13:14:00,
2013-08-30 09:19:00,73.4,69.3,29.96,SW,225,0.0,0.0,87,0.00,RMK 76.3/49.0,,0.00,WUHU21623XXSP,2013-08-30 13:19:00,
2013-08-30 09:24:00,74.2,69.4,29.96,SSW,202,0.0,0.0,85,0.00,RMK 76.3/49.0,,0.00,WUHU21623XXSP,2013-08-30 13:24:00,
2013-08-30 09:29:00,74.9,69.8,29.96,SSW,202,0.0,0.0,84,0.00,RMK 76.3/49.0,,0.00,WUHU21623XXSP,2013-08-30 13:29:00,
2013-08-30 09:34:00,75.4,69.9,29.95,SW,225,0.0,0.0,83,0.00,RMK 76.3/49.0,,0.00,WUHU21623XXSP,2013-08-30 13:34:00,
2013-08-30 09:39:00,76.7,70.5,29.95,SW,225,0.0,0.0,81,0.00,RMK 76.3/49.0,,0.00,WUHU21623XXSP,2013-08-30 13:39:00,
2013-08-30 09:44:00,77.2,70.7,29.95,SSE,157,0.0,0.0,80,0.00,RMK 76.5/49.0,,0.00,WUHU21623XXSP,2013-08-30 13:44:00,
2013-08-30 09:49:00,77.8,70.9,29.95,SW,225,0.0,0.0,79,0.00,RMK 76.3/49.0,,0.00,WUHU21623XXSP,2013-08-30 13:49:00,
2013-08-30 09:54:00,78.5,71.2,29.94,South,180,0.0,0.0,78,0.00,RMK 76.5/49.0,,0.00,WUHU21623XXSP,2013-08-30 13:54:00,
2013-08-30 09:59:00,78.8,71.1,29.94,SSW,202,0.0,0.0,77,0.00,RMK 76.5/49.0,,0.00,WUHU21623XXSP,2013-08-30 13:59:00,
2013-08-30 10:04:00,79.2,71.1,29.94,SW,225,0.0,0.0,76,0.00,RMK 76.5/49.0,,0.00,WUHU21623XXSP,2013-08-30 14:04:00,
2013-08-30 10:09:00,79.7,71.2,29.94,South,180,0.0,0.0,75,0.00,RMK 76.3/49.0,,0.00,WUHU21623XXSP,2013-08-30 14:09:00,
2013-08-30 10:14:00,80.3,71.4,29.94,West,270,0.0,0.0,74,0.00,RMK 76.3/49.0,,0.00,WUHU21623XXSP,2013-08-30 14:14:00,
2013-08-30 10:19:00,80.6,71.3,29.94,WSW,247,0.0,0.0,73,0.00,RMK 76.3/48.0,,0.00,WUHU21623XXSP,2013-08-30 14:19:00,
2013-08-30 10:24:00,81.2,71.9,29.94,SW,225,0.0,0.0,73,0.00,RMK 76.3/48.0,,0.00,WUHU21623XXSP,2013-08-30 14:24:00,
2013-08-30 10:29:00,81.2,71.5,29.94,SW,225,0.0,0.0,72,0.00,RMK 76.3/49.0,,0.00,WUHU21623XXSP,2013-08-30 14:29:00,
2013-08-30 10:34:00,81.7,72.0,29.94,SW,225,0.0,0.0,72,0.00,RMK 76.3/48.0,,0.00,WUHU21623XXSP,2013-08-30 14:34:00,
2013-08-30 10:39:00,81.5,71.4,29.94,SW,225,0.0,0.0,71,0.00,RMK 76.3/48.0,,0.00,WUHU21623XXSP,2013-08-30 14:39:00,
2013-08-30 10:44:00,81.5,71.4,29.93,SSW,202,0.0,0.0,71,0.00,RMK 76.3/48.0,,0.00,WUHU21623XXSP,2013-08-30 14:44:00,
2013-08-30 10:49:00,81.7,71.6,29.93,SSE,157,0.0,0.0,71,0.00,RMK 76.3/48.0,,0.00,WUHU21623XXSP,2013-08-30 14:49:00,
2013-08-30 10:54:00,81.9,71.4,29.93,WSW,247,0.0,0.0,70,0.00,RMK 76.3/48.0,,0.00,WUHU21623XXSP,2013-08-30 14:54:00,
2013-08-30 10:59:00,81.7,71.6,29.93,WSW,247,0.0,0.0,71,0.00,RMK 76.3/48.0,,0.00,WUHU21623XXSP,2013-08-30 14:59:00,
2013-08-30 11:04:00,81.7,71.6,29.93,WSW,247,0.0,0.0,71,0.00,RMK 76.3/48.0,,0.00,WUHU21623XXSP,2013-08-30 15:04:00,
2013-08-30 11:09:00,82.1,71.6,29.93,SSW,202,0.0,0.0,70,0.00,RMK 76.3/48.0,,0.00,WUHU21623XXSP,2013-08-30 15:09:00,
2013-08-30 11:14:00,82.4,71.9,29.93,WSW,247,0.0,0.0,70,0.00,RMK 76.3/48.0,,0.00,WUHU21623XXSP,2013-08-30 15:14:00,
2013-08-30 11:19:00,82.6,72.1,29.93,SSW,202,0.0,0.0,70,0.00,RMK 76.1/48.0,,0.00,WUHU21623XXSP,2013-08-30 15:19:00,
2013-08-30 11:24:00,82.6,71.6,29.93,SE,135,0.0,0.0,69,0.00,RMK 76.1/48.0,,0.00,WUHU21623XXSP,2013-08-30 15:24:00,
2013-08-30 11:29:00,83.0,72.0,29.92,South,180,0.0,0.0,69,0.00,RMK 76.1/47.0,,0.00,WUHU21623XXSP,2013-08-30 15:29:00,
2013-08-30 11:34:00,83.0,72.0,29.93,SE,135,0.0,0.0,69,0.00,RMK 76.1/47.0,,0.00,WUHU21623XXSP,2013-08-30 15:34:00,
2013-08-30 11:39:00,82.4,71.9,29.93,SW,225,0.0,0.0,70,0.00,RMK 75.9/48.0,,0.00,WUHU21623XXSP,2013-08-30 15:39:00,
2013-08-30 11:44:00,82.4,71.4,29.93,South,180,0.0,0.0,69,0.00,RMK 75.9/48.0,,0.00,WUHU21623XXSP,2013-08-30 15:44:00,
2013-08-30 11:49:00,82.8,71.8,29.92,SW,225,0.0,0.0,69,0.00,RMK 75.9/48.0,,0.00,WUHU21623XXSP,2013-08-30 15:49:00,
2013-08-30 11:54:00,83.3,72.3,29.93,NNW,337,0.0,0.0,69,0.00,RMK 75.9/48.0,,0.00,WUHU21623XXSP,2013-08-30 15:54:00,
2013-08-30 11:59:00,83.5,72.1,29.92,SW,225,0.0,0.0,68,0.00,RMK 75.9/48.0,,0.00,WUHU21623XXSP,2013-08-30 15:59:00,
2013-08-30 12:04:00,83.5,72.1,29.92,South,180,0.0,0.0,68,0.00,RMK 75.9/48.0,,0.00,WUHU21623XXSP,2013-08-30 16:04:00,
2013-08-30 12:09:00,83.5,72.1,29.92,SW,225,0.0,0.0,68,0.00,RMK 75.9/48.0,,0.00,WUHU21623XXSP,2013-08-30 16:09:00,
2013-08-30 12:14:00,84.1,72.2,29.92,SW,225,0.0,0.0,67,0.00,RMK 75.9/48.0,,0.00,WUHU21623XXSP,2013-08-30 16:14:00,
2013-08-30 12:19:00,84.4,72.9,29.91,SSE,157,0.0,0.0,68,0.00,RMK 75.9/49.0,,0.00,WUHU21623XXSP,2013-08-30 16:19:00,
2013-08-30 12:24:00,84.4,72.1,29.91,NW,315,0.0,0.0,66,0.00,RMK 75.7/48.0,,0.00,WUHU21623XXSP,2013-08-30 16:24:00,
2013-08-30 12:29:00,83.7,70.9,29.91,SW,225,0.0,0.0,65,0.00,RMK 75.9/49.0,,0.00,WUHU21623XXSP,2013-08-30 16:29:00,
2013-08-30 12:34:00,83.3,71.5,29.91,SSW,202,0.0,0.0,67,0.00,RMK 75.9/49.0,,0.00,WUHU21623XXSP,2013-08-30 16:34:00,
2013-08-30 12:39:00,83.3,71.5,29.91,WSW,247,0.0,0.0,67,0.00,RMK 75.7/49.0,,0.00,WUHU21623XXSP,2013-08-30 16:39:00,
2013-08-30 12:44:00,84.1,72.7,29.91,West,270,0.0,0.0,68,0.00,RMK 75.9/49.0,,0.00,WUHU21623XXSP,2013-08-30 16:44:00,
2013-08-30 12:49:00,84.4,72.9,29.91,SW,225,0.0,0.0,68,0.00,RMK 75.7/49.0,,0.00,WUHU21623XXSP,2013-08-30 16:49:00,
2013-08-30 12:54:00,84.6,72.7,29.91,SSE,157,0.0,0.0,67,0.00,RMK 75.9/49.0,,0.00,WUHU21623XXSP,2013-08-30 16:54:00,
2013-08-30 12:59:00,84.8,72.4,29.90,NW,315,0.0,0.0,66,0.00,RMK 75.7/49.0,,0.00,WUHU21623XXSP,2013-08-30 16:59:00,
2013-08-30 13:04:00,85.1,72.3,29.90,SW,225,0.0,0.0,65,0.00,RMK 75.7/49.0,,0.00,WUHU21623XXSP,2013-08-30 17:04:00,
2013-08-30 13:09:00,85.1,71.4,29.91,South,180,0.0,0.0,63,0.00,RMK 75.9/50.0,,0.00,WUHU21623XXSP,2013-08-30 17:09:00,
2013-08-30 13:14:00,84.6,71.8,29.90,SSW,202,0.0,0.0,65,0.00,RMK 75.9/50.0,,0.00,WUHU21623XXSP,2013-08-30 17:14:00,
2013-08-30 13:19:00,84.2,71.0,29.90,West,270,0.0,0.0,64,0.00,RMK 75.9/49.0,,0.00,WUHU21623XXSP,2013-08-30 17:19:00,
2013-08-30 13:24:00,84.2,71.4,29.90,West,270,0.0,0.0,65,0.00,RMK 75.9/50.0,,0.00,WUHU21623XXSP,2013-08-30 17:24:00,
2013-08-30 13:29:00,85.1,73.2,29.90,South,180,0.0,0.0,67,0.00,RMK 75.9/49.0,,0.00,WUHU21623XXSP,2013-08-30 17:29:00,
2013-08-30 13:33:00,85.3,72.0,29.89,WSW,247,0.0,0.0,64,0.00,RMK 75.9/49.0,,0.00,WUHU21623XXSP,2013-08-30 17:33:00,
2013-08-30 13:38:00,85.7,72.4,29.89,South,180,0.0,0.0,64,0.00,RMK 75.9/49.0,,0.00,WUHU21623XXSP,2013-08-30 17:38:00,
2013-08-30 13:43:00,85.7,72.4,29.89,South,180,0.0,0.0,64,0.00,RMK 75.9/49.0,,0.00,WUHU21623XXSP,2013-08-30 17:43:00,
2013-08-30 13:48:00,85.7,72.9,29.89,SSE,157,0.0,0.0,65,0.00,RMK 75.9/49.0,,0.00,WUHU21623XXSP,2013-08-30 17:48:00,
2013-08-30 13:53:00,85.3,72.5,29.89,NW,315,0.0,0.0,65,0.00,RMK 75.9/49.0,,0.00,WUHU21623XXSP,2013-08-30 17:53:00,
2013-08-30 13:58:00,85.3,72.0,29.89,NNE,22,0.0,0.0,64,0.00,RMK 75.9/49.0,,0.00,WUHU21623XXSP,2013-08-30 17:58:00,
2013-08-30 14:03:00,85.3,72.0,29.89,SSW,202,0.0,0.0,64,0.00,RMK 75.9/49.0,,0.00,WUHU21623XXSP,2013-08-30 18:03:00,
2013-08-30 14:08:00,85.3,72.5,29.89,SSW,202,0.0,0.0,65,0.00,RMK 75.9/49.0,,0.00,WUHU21623XXSP,2013-08-30 18:08:00,
2013-08-30 14:13:00,85.3,72.9,29.89,SSW,202,0.0,0.0,66,0.00,RMK 75.9/49.0,,0.00,WUHU21623XXSP,2013-08-30 18:13:00,
2013-08-30 14:18:00,85.3,72.9,29.89,West,270,0.0,0.0,66,0.00,RMK 75.9/49.0,,0.00,WUHU21623XXSP,2013-08-30 18:18:00,
2013-08-30 14:23:00,85.3,72.0,29.89,West,270,0.0,0.0,64,0.00,RMK 75.9/49.0,,0.00,WUHU21623XXSP,2013-08-30 18:23:00,
2013-08-30 14:28:00,85.3,72.0,29.88,NE,45,0.0,0.0,64,0.00,RMK 75.9/49.0,,0.00,WUHU21623XXSP,2013-08-30 18:28:00,
2013-08-30 14:33:00,85.1,71.4,29.88,SW,225,0.0,0.0,63,0.00,RMK 75.9/50.0,,0.00,WUHU21623XXSP,2013-08-30 18:33:00,
2013-08-30 14:38:00,85.1,71.4,29.87,WSW,247,0.0,0.0,63,0.00,RMK 75.9/49.0,,0.00,WUHU21623XXSP,2013-08-30 18:38:00,
2013-08-30 14:43:00,85.1,70.9,29.87,SSW,202,0.0,0.0,62,0.00,RMK 75.9/50.0,,0.00,WUHU21623XXSP,2013-08-30 18:43:00,
2013-08-30 14:48:00,85.1,71.4,29.86,SSW,202,0.0,0.0,63,0.00,RMK 75.9/50.0,,0.00,WUHU21623XXSP,2013-08-30 18:48:00,
2013-08-30 14:53:00,85.1,71.4,29.86,South,180,0.0,0.0,63,0.00,RMK 75.9/50.0,,0.00,WUHU21623XXSP,2013-08-30 18:53:00,
2013-08-30 14:58:00,85.1,70.9,29.86,SW,225,0.0,0.0,62,0.00,RMK 75.9/49.0,,0.00,WUHU21623XXSP,2013-08-30 18:58:00,
2013-08-30 15:03:00,85.0,71.3,29.86,South,180,0.0,0.0,63,0.00,RMK 75.9/49.0,,0.00,WUHU21623XXSP,2013-08-30 19:03:00,
2013-08-30 15:08:00,84.8,71.1,29.86,SSW,202,0.0,0.0,63,0.00,RMK 75.9/49.0,,0.00,WUHU21623XXSP,2013-08-30 19:08:00,
2013-08-30 15:13:00,84.8,70.6,29.86,WNW,292,0.0,0.0,62,0.00,RMK 75.9/49.0,,0.00,WUHU21623XXSP,2013-08-30 19:13:00,
2013-08-30 15:18:00,84.8,70.6,29.85,SW,225,0.0,0.0,62,0.00,RMK 75.9/49.0,,0.00,WUHU21623XXSP,2013-08-30 19:18:00,
2013-08-30 15:23:00,84.8,70.6,29.85,ENE,67,0.0,0.0,62,0.00,RMK 75.9/49.0,,0.00,WUHU21623XXSP,2013-08-30 19:23:00,
2013-08-30 15:28:00,84.8,71.1,29.85,SSW,202,0.0,0.0,63,0.00,RMK 75.9/48.0,,0.00,WUHU21623XXSP,2013-08-30 19:28:00,
2013-08-30 15:33:00,84.8,70.6,29.84,NW,315,0.0,0.0,62,0.00,RMK 75.9/49.0,,0.00,WUHU21623XXSP,2013-08-30 19:33:00,
2013-08-30 15:38:00,84.8,70.6,29.84,East,90,0.0,0.0,62,0.00,RMK 75.9/49.0,,0.00,WUHU21623XXSP,2013-08-30 19:38:00,
2013-08-30 15:43:00,84.6,70.4,29.84,WSW,247,0.0,0.0,62,0.00,RMK 75.9/49.0,,0.00,WUHU21623XXSP,2013-08-30 19:43:00,
2013-08-30 15:49:00,84.8,70.6,29.84,West,270,0.0,0.0,62,0.00,RMK 75.9/49.0,,0.00,WUHU21623XXSP,2013-08-30 19:49:00,
2013-08-30 15:54:00,84.8,70.1,29.84,NNW,337,0.0,0.0,61,0.00,RMK 75.9/49.0,,0.00,WUHU21623XXSP,2013-08-30 19:54:00,
2013-08-30 15:59:00,84.8,70.6,29.83,SW,225,0.0,0.0,62,0.00,RMK 75.9/49.0,,0.00,WUHU21623XXSP,2013-08-30 19:59:00,
2013-08-30 16:05:00,84.8,70.6,29.84,SW,225,0.0,0.0,62,0.00,RMK 75.9/48.0,,0.00,WUHU21623XXSP,2013-08-30 20:05:00,
2013-08-30 16:10:00,84.8,70.6,29.83,SSE,157,0.0,0.0,62,0.00,RMK 75.9/48.0,,0.00,WUHU21623XXSP,2013-08-30 20:10:00,
2013-08-30 16:15:00,84.8,71.1,29.83,SSW,202,0.0,0.0,63,0.00,RMK 75.9/49.0,,0.00,WUHU21623XXSP,2013-08-30 20:15:00,
2013-08-30 16:21:00,84.8,71.1,29.83,SSW,202,0.0,0.0,63,0.00,RMK 75.9/49.0,,0.00,WUHU21623XXSP,2013-08-30 20:21:00,
2013-08-30 16:26:00,84.6,70.4,29.82,North,0,0.0,0.0,62,0.00,RMK 75.9/49.0,,0.00,WUHU21623XXSP,2013-08-30 20:26:00,
2013-08-30 16:31:00,84.4,70.2,29.82,SSE,157,0.0,0.0,62,0.00,RMK 75.9/49.0,,0.00,WUHU21623XXSP,2013-08-30 20:31:00,
2013-08-30 16:36:00,84.2,70.5,29.82,WNW,292,0.0,0.0,63,0.00,RMK 75.9/49.0,,0.00,WUHU21623XXSP,2013-08-30 20:36:00,
2013-08-30 16:41:00,84.2,70.0,29.82,SSW,202,0.0,0.0,62,0.00,RMK 75.9/49.0,,0.00,WUHU21623XXSP,2013-08-30 20:41:00,
2013-08-30 16:46:00,84.1,70.4,29.82,NNW,337,0.0,0.0,63,0.00,RMK 75.9/49.0,,0.00,WUHU21623XXSP,2013-08-30 20:46:00,
2013-08-30 16:51:00,84.2,70.5,29.82,WSW,247,0.0,0.0,63,0.00,RMK 75.9/49.0,,0.00,WUHU21623XXSP,2013-08-30 20:51:00,
2013-08-30 16:56:00,84.1,70.4,29.82,WSW,247,0.0,0.0,63,0.00,RMK 75.9/49.0,,0.00,WUHU21623XXSP,2013-08-30 20:56:00,
2013-08-30 17:01:00,84.2,71.0,29.81,SSW,202,0.0,0.0,64,0.00,RMK 75.9/49.0,,0.00,WUHU21623XXSP,2013-08-30 21:01:00,
2013-08-30 17:06:00,84.1,70.4,29.81,NNW,337,0.0,0.0,63,0.00,RMK 75.9/49.0,,0.00,WUHU21623XXSP,2013-08-30 21:06:00,
2013-08-30 17:12:00,84.1,70.9,29.81,WSW,247,0.0,0.0,64,0.00,RMK 75.9/50.0,,0.00,WUHU21623XXSP,2013-08-30 21:12:00,
2013-08-30 17:17:00,83.9,71.1,29.80,WSW,247,0.0,0.0,65,0.00,RMK 75.9/50.0,,0.00,WUHU21623XXSP,2013-08-30 21:17:00,
2013-08-30 17:22:00,83.9,71.1,29.81,SW,225,0.0,0.0,65,0.00,RMK 75.9/50.0,,0.00,WUHU21623XXSP,2013-08-30 21:22:00,
2013-08-30 17:27:00,83.5,70.8,29.80,SW,225,0.0,0.0,65,0.00,RMK 75.9/50.0,,0.00,WUHU21623XXSP,2013-08-30 21:27:00,
2013-08-30 17:32:00,83.5,70.8,29.80,West,270,0.0,0.0,65,0.00,RMK 75.9/50.0,,0.00,WUHU21623XXSP,2013-08-30 21:32:00,
2013-08-30 17:37:00,83.5,70.8,29.80,SW,225,0.0,0.0,65,0.00,RMK 75.9/50.0,,0.00,WUHU21623XXSP,2013-08-30 21:37:00,
2013-08-30 17:42:00,83.3,70.6,29.80,SSW,202,0.0,0.0,65,0.00,RMK 75.9/50.0,,0.00,WUHU21623XXSP,2013-08-30 21:42:00,
2013-08-30 17:47:00,83.2,70.5,29.80,West,270,0.0,0.0,65,0.00,RMK 75.9/50.0,,0.00,WUHU21623XXSP,2013-08-30 21:47:00,
2013-08-30 17:52:00,83.2,70.9,29.80,SSW,202,0.0,0.0,66,0.00,RMK 75.9/50.0,,0.00,WUHU21623XXSP,2013-08-30 21:52:00,
2013-08-30 17:57:00,83.0,70.7,29.79,SSW,202,0.0,0.0,66,0.00,RMK 75.9/50.0,,0.00,WUHU21623XXSP,2013-08-30 21:57:00,
2013-08-30 18:02:00,83.0,70.7,29.79,WSW,247,0.0,0.0,66,0.00,RMK 75.9/51.0,,0.00,WUHU21623XXSP,2013-08-30 22:02:00,
2013-08-30 18:07:00,82.8,70.5,29.80,WSW,247,0.0,0.0,66,0.00,RMK 76.1/51.0,,0.00,WUHU21623XXSP,2013-08-30 22:07:00,
2013-08-30 18:12:00,82.6,70.3,29.80,WSW,247,0.0,0.0,66,0.00,RMK 76.1/50.0,,0.00,WUHU21623XXSP,2013-08-30 22:12:00,
2013-08-30 18:17:00,82.6,70.3,29.79,WSW,247,0.0,0.0,66,0.00,RMK 76.3/50.0,,0.00,WUHU21623XXSP,2013-08-30 22:17:00,
2013-08-30 18:22:00,82.4,70.2,29.79,SW,225,0.0,0.0,66,0.00,RMK 76.3/50.0,,0.00,WUHU21623XXSP,2013-08-30 22:22:00,
2013-08-30 18:27:00,82.4,70.6,29.79,SW,225,0.0,0.0,67,0.00,RMK 76.3/50.0,,0.00,WUHU21623XXSP,2013-08-30 22:27:00,
2013-08-30 18:32:00,82.4,70.6,29.79,WSW,247,0.0,0.0,67,0.00,RMK 76.3/50.0,,0.00,WUHU21623XXSP,2013-08-30 22:32:00,
2013-08-30 18:37:00,82.4,71.0,29.79,WSW,247,0.0,0.0,68,0.00,RMK 76.5/50.0,,0.00,WUHU21623XXSP,2013-08-30 22:37:00,
2013-08-30 18:42:00,82.3,70.9,29.79,SW,225,0.0,0.0,68,0.00,RMK 76.5/50.0,,0.00,WUHU21623XXSP,2013-08-30 22:42:00,
2013-08-30 18:47:00,82.3,70.9,29.79,SSW,202,0.0,0.0,68,0.00,RMK 76.5/50.0,,0.00,WUHU21623XXSP,2013-08-30 22:47:00,
2013-08-30 18:52:00,82.1,71.2,29.79,WSW,247,0.0,0.0,69,0.00,RMK 76.6/50.0,,0.00,WUHU21623XXSP,2013-08-30 22:52:00,
2013-08-30 18:57:00,81.9,71.0,29.79,WSW,247,0.0,0.0,69,0.00,RMK 76.6/49.0,,0.00,WUHU21623XXSP,2013-08-30 22:57:00,
2013-08-30 19:02:00,81.7,71.2,29.79,WSW,247,0.0,0.0,70,0.00,RMK 76.6/49.0,,0.00,WUHU21623XXSP,2013-08-30 23:02:00,
2013-08-30 19:07:00,81.7,71.6,29.78,WSW,247,0.0,0.0,71,0.00,RMK 76.6/48.0,,0.00,WUHU21623XXSP,2013-08-30 23:07:00,
2013-08-30 19:12:00,81.5,71.4,29.77,SW,225,0.0,0.0,71,0.00,RMK 76.6/47.0,,0.00,WUHU21623XXSP,2013-08-30 23:12:00,
2013-08-30 19:17:00,81.5,71.8,29.77,WSW,247,0.0,0.0,72,0.00,RMK 76.8/48.0,,0.00,WUHU21623XXSP,2013-08-30 23:17:00,
2013-08-30 19:22:00,81.2,71.5,29.77,SSW,202,0.0,0.0,72,0.00,RMK 76.8/48.0,,0.00,WUHU21623XXSP,2013-08-30 23:22:00,
2013-08-30 19:28:00,81.0,71.3,29.77,SSW,202,0.0,0.0,72,0.00,RMK 76.8/48.0,,0.00,WUHU21623XXSP,2013-08-30 23:28:00,
2013-08-30 19:33:00,80.8,71.5,29.77,SW,225,0.0,0.0,73,0.00,RMK 76.8/48.0,,0.00,WUHU21623XXSP,2013-08-30 23:33:00,
2013-08-30 19:38:00,80.6,71.3,29.77,SSW,202,0.0,0.0,73,0.00,RMK 76.8/48.0,,0.00,WUHU21623XXSP,2013-08-30 23:38:00,
2013-08-30 19:43:00,80.5,71.2,29.78,SSW,202,0.0,0.0,73,0.00,RMK 76.8/48.0,,0.00,WUHU21623XXSP,2013-08-30 23:43:00,
2013-08-30 19:48:00,80.3,71.1,29.77,SSW,202,0.0,0.0,73,0.00,RMK 77.0/48.0,,0.00,WUHU21623XXSP,2013-08-30 23:48:00,
2013-08-30 19:53:00,79.9,70.7,29.77,SSW,202,0.0,0.0,73,0.00,RMK 77.0/49.0,,0.00,WUHU21623XXSP,2013-08-30 23:53:00,
2013-08-30 19:58:00,79.9,71.1,29.77,SSW,202,0.0,0.0,74,0.00,RMK 77.0/48.0,,0.00,WUHU21623XXSP,2013-08-30 23:58:00,
2013-08-30 20:03:00,79.7,70.9,29.77,SSW,202,0.0,0.0,74,0.00,RMK 77.0/49.0,,0.00,WUHU21623XXSP,2013-08-31 00:03:00,
2013-08-30 20:08:00,79.6,71.2,29.77,SSW,202,0.0,0.0,75,0.00,RMK 77.2/49.0,,0.00,WUHU21623XXSP,2013-08-31 00:08:00,
2013-08-30 20:13:00,79.4,71.0,29.77,SSW,202,0.0,0.0,75,0.00,RMK 77.2/48.0,,0.00,WUHU21623XXSP,2013-08-31 00:13:00,
2013-08-30 20:18:00,79.2,70.8,29.77,WSW,247,0.0,0.0,75,0.00,RMK 77.2/49.0,,0.00,WUHU21623XXSP,2013-08-31 00:18:00,
2013-08-30 20:23:00,79.0,70.9,29.76,WSW,247,0.0,0.0,76,0.00,RMK 77.2/48.0,,0.00,WUHU21623XXSP,2013-08-31 00:23:00,
2013-08-30 20:28:00,78.8,70.8,29.77,SW,225,0.0,0.0,76,0.00,RMK 77.2/48.0,,0.00,WUHU21623XXSP,2013-08-31 00:28:00,
2013-08-30 20:33:00,78.7,70.7,29.77,SW,225,0.0,0.0,76,0.00,RMK 77.4/48.0,,0.00,WUHU21623XXSP,2013-08-31 00:33:00,
2013-08-30 20:39:00,78.5,70.5,29.77,SSW,202,0.0,0.0,76,0.00,RMK 77.4/48.0,,0.00,WUHU21623XXSP,2013-08-31 00:39:00,
2013-08-30 20:44:00,78.5,70.5,29.77,SW,225,0.0,0.0,76,0.00,RMK 77.4/48.0,,0.00,WUHU21623XXSP,2013-08-31 00:44:00,
2013-08-30 20:49:00,78.3,70.3,29.77,West,270,0.0,0.0,76,0.00,RMK 77.4/48.0,,0.00,WUHU21623XXSP,2013-08-31 00:49:00,
2013-08-30 20:54:00,78.1,70.4,29.78,West,270,0.0,0.0,77,0.00,RMK 77.4/48.0,,0.00,WUHU21623XXSP,2013-08-31 00:54:00,
2013-08-30 20:59:00,78.1,70.4,29.78,SSW,202,0.0,0.0,77,0.00,RMK 77.4/48.0,,0.00,WUHU21623XXSP,2013-08-31 00:59:00,
2013-08-30 21:04:00,78.1,70.4,29.78,SSW,202,0.0,0.0,77,0.00,RMK 77.4/48.0,,0.00,WUHU21623XXSP,2013-08-31 01:04:00,
2013-08-30 21:09:00,78.1,70.4,29.78,SW,225,0.0,0.0,77,0.00,RMK 77.4/48.0,,0.00,WUHU21623XXSP,2013-08-31 01:09:00,
2013-08-30 21:14:00,78.1,70.4,29.78,SW,225,0.0,0.0,77,0.00,RMK 77.4/48.0,,0.00,WUHU21623XXSP,2013-08-31 01:14:00,
2013-08-30 21:19:00,78.1,70.4,29.78,South,180,0.0,0.0,77,0.00,RMK 77.5/48.0,,0.00,WUHU21623XXSP,2013-08-31 01:19:00,
2013-08-30 21:24:00,78.1,70.8,29.78,SW,225,0.0,0.0,78,0.00,RMK 77.5/48.0,,0.00,WUHU21623XXSP,2013-08-31 01:24:00,
2013-08-30 21:29:00,78.1,70.8,29.78,SW,225,0.0,0.0,78,0.00,RMK 77.5/48.0,,0.00,WUHU21623XXSP,2013-08-31 01:29:00,
2013-08-30 21:34:00,78.1,70.8,29.77,SW,225,0.0,0.0,78,0.00,RMK 77.5/48.0,,0.00,WUHU21623XXSP,2013-08-31 01:34:00,
2013-08-30 21:39:00,78.1,70.8,29.77,SW,225,0.0,0.0,78,0.00,RMK 77.5/48.0,,0.00,WUHU21623XXSP,2013-08-31 01:39:00,
2013-08-30 21:44:00,78.1,70.8,29.77,SW,225,0.0,0.0,78,0.00,RMK 77.5/48.0,,0.00,WUHU21623XXSP,2013-08-31 01:44:00,
2013-08-30 21:49:00,78.1,70.8,29.77,SW,225,0.0,0.0,78,0.00,RMK 77.5/48.0,,0.00,WUHU21623XXSP,2013-08-31 01:49:00,
2013-08-30 21:54:00,78.1,70.8,29.78,NNE,22,0.0,0.0,78,0.00,RMK 77.7/48.0,,0.00,WUHU21623XXSP,2013-08-31 01:54:00,
2013-08-30 21:59:00,78.1,70.8,29.78,NNE,22,0.0,0.0,78,0.00,RMK 77.7/48.0,,0.00,WUHU21623XXSP,2013-08-31 01:59:00,
2013-08-30 22:04:00,78.1,70.8,29.79,NNE,22,0.0,0.0,78,0.00,RMK 77.7/48.0,,0.00,WUHU21623XXSP,2013-08-31 02:04:00,
2013-08-30 22:09:00,78.1,71.2,29.79,North,0,0.0,0.0,79,0.00,RMK 77.7/48.0,,0.00,WUHU21623XXSP,2013-08-31 02:09:00,
2013-08-30 22:14:00,77.9,71.0,29.78,North,0,0.0,0.0,79,0.00,RMK 77.7/48.0,,0.00,WUHU21623XXSP,2013-08-31 02:14:00,
2013-08-30 22:19:00,77.9,71.0,29.78,North,0,0.0,0.0,79,0.00,RMK 77.7/48.0,,0.00,WUHU21623XXSP,2013-08-31 02:19:00,
2013-08-30 22:24:00,77.9,71.3,29.78,NNW,337,0.0,0.0,80,0.00,RMK 77.7/48.0,,0.00,WUHU21623XXSP,2013-08-31 02:24:00,
2013-08-30 22:29:00,77.9,71.3,29.79,North,0,0.0,0.0,80,0.00,RMK 77.7/48.0,,0.00,WUHU21623XXSP,2013-08-31 02:29:00,
2013-08-30 22:34:00,77.8,71.2,29.79,North,0,0.0,0.0,80,0.00,RMK 77.7/48.0,,0.00,WUHU21623XXSP,2013-08-31 02:34:00,
2013-08-30 22:39:00,77.6,71.4,29.80,NNE,22,0.0,0.0,81,0.00,RMK 77.7/48.0,,0.00,WUHU21623XXSP,2013-08-31 02:39:00,
2013-08-30 22:44:00,77.6,71.4,29.80,North,0,0.0,0.0,81,0.00,RMK 77.7/48.0,,0.00,WUHU21623XXSP,2013-08-31 02:44:00,
2013-08-30 22:49:00,77.4,71.6,29.80,NE,45,0.0,0.0,82,0.00,RMK 77.7/48.0,,0.00,WUHU21623XXSP,2013-08-31 02:49:00,
2013-08-30 22:54:00,77.2,71.4,29.80,North,0,0.0,0.0,82,0.00,RMK 77.5/48.0,,0.00,WUHU21623XXSP,2013-08-31 02:54:00,
2013-08-30 22:59:00,77.2,71.4,29.80,NW,315,0.0,0.0,82,0.00,RMK 77.5/49.0,,0.00,WUHU21623XXSP,2013-08-31 02:59:00,
2013-08-30 23:04:00,77.0,71.5,29.80,North,0,0.0,0.0,83,0.00,RMK 77.5/49.0,,0.00,WUHU21623XXSP,2013-08-31 03:04:00,
2013-08-30 23:09:00,77.0,71.5,29.80,NNE,22,0.0,0.0,83,0.00,RMK 77.5/50.0,,0.00,WUHU21623XXSP,2013-08-31 03:09:00,
2013-08-30 23:14:00,76.9,71.4,29.81,NNE,22,0.0,0.0,83,0.00,RMK 77.5/50.0,,0.00,WUHU21623XXSP,2013-08-31 03:14:00,
2013-08-30 23:19:00,76.9,71.4,29.80,NE,45,0.0,0.0,83,0.00,RMK 77.5/50.0,,0.00,WUHU21623XXSP,2013-08-31 03:19:00,
2013-08-30 23:24:00,76.7,71.6,29.80,NNE,22,0.0,0.0,84,0.00,RMK 77.5/50.0,,0.00,WUHU21623XXSP,2013-08-31 03:24:00,
2013-08-30 23:29:00,76.7,71.6,29.80,NNE,22,0.0,0.0,84,0.00,RMK 77.5/50.0,,0.00,WUHU21623XXSP,2013-08-31 03:29:00,
2013-08-30 23:34:00,76.7,71.6,29.80,ENE,67,0.0,0.0,84,0.00,RMK 77.5/50.0,,0.00,WUHU21623XXSP,2013-08-31 03:34:00,
2013-08-30 23:39:00,76.5,71.7,29.80,ENE,67,0.0,0.0,85,0.00,RMK 77.5/50.0,,0.00,WUHU21623XXSP,2013-08-31 03:39:00,
2013-08-30 23:44:00,76.5,71.7,29.80,SE,135,0.0,0.0,85,0.00,RMK 77.5/50.0,,0.00,WUHU21623XXSP,2013-08-31 03:44:00,
2013-08-30 23:49:00,76.3,71.5,29.81,SSE,157,0.0,0.0,85,0.00,RMK 77.5/50.0,,0.00,WUHU21623XXSP,2013-08-31 03:49:00,
2013-08-30 23:54:00,76.3,71.5,29.81,SSE,157,0.0,0.0,85,0.00,RMK 77.5/50.0,,0.00,WUHU21623XXSP,2013-08-31 03:54:00,
2013-08-30 23:59:00,76.3,71.5,29.80,SE,135,0.0,0.0,85,0.00,RMK 77.5/50.0,,0.00,WUHU21623XXSP,2013-08-31 03:59:00,